DW5274 Weather Reports


Display with metric or nautical units.
time (UTC)temp
F
wind
direction
speed
MPH
gust
MPH
rain 1hr
in
rain 24hr
in
rain mn
in
humidity
%
barometer
mb
20260507163026 69 342 0.0 0.0 0.00 0.00 0.00 41 1013.1
20260507161525 69 342 0.0 0.0 0.00 0.00 0.00 41 1013.2
20260507160007 68 342 0.0 0.0 0.00 0.00 0.00 43 1013.2
20260507154507 67 342 0.0 0.0 0.00 0.00 0.00 43 1013.3
20260507153053 66 342 0.0 0.0 0.00 0.00 0.00 44 1013.4
20260507151549 64 342 0.0 0.0 0.00 0.00 0.00 49 1013.5
20260507150030 63 342 0.0 0.0 0.00 0.00 0.00 48 1013.5
20260507144534 62 17 0.0 0.0 0.00 0.00 0.00 52 1013.4
20260507143012 59 17 0.0 0.0 0.00 0.00 0.00 56 1013.3
20260507141512 57 17 0.0 0.0 0.00 0.00 0.00 60 1013.2
20260507140108 56 17 0.0 0.0 0.00 0.00 0.00 62 1013.1
20260507134554 55 16 0.0 0.0 0.00 0.00 0.00 63 1012.9
20260507133035 55 16 0.0 0.0 0.00 0.00 0.00 63 1012.8
20260507131542 55 15 0.0 0.0 0.00 0.00 0.00 62 1012.7
20260507130017 55 15 0.0 0.0 0.00 0.00 0.00 62 1012.6
20260507124519 55 16 0.0 0.0 0.00 0.00 0.00 62 1012.6
20260507123004 54 15 0.0 0.0 0.00 0.00 0.00 61 1012.5
20260507121503 55 16 0.0 0.0 0.00 0.00 0.00 63 1012.4
20260507120001 55 15 0.0 0.0 0.00 0.00 0.00 64 1012.3
20260507114600 56 15 0.0 0.0 0.00 0.00 0.00 64 1012.3
20260507113058 56 15 0.0 0.0 0.00 0.00 0.00 64 1012.3
20260507111556 57 15 0.0 0.0 0.00 0.00 0.00 63 1012.3
20260507110056 57 16 0.0 0.0 0.00 0.00 0.00 63 1012.2
20260507104553 58 16 0.0 0.0 0.00 0.00 0.00 62 1012.2
20260507103039 58 16 0.0 0.0 0.00 0.00 0.00 62 1012.2
20260507101555 58 15 0.0 0.0 0.00 0.00 0.00 62 1012.1
20260507100037 59 16 0.0 0.0 0.00 0.00 0.00 62 1012.0
20260507094535 59 16 0.0 0.0 0.00 0.00 0.00 62 1011.9
20260507093034 59 16 0.0 0.0 0.00 0.00 0.00 62 1011.8
20260507091550 59 17 0.0 0.0 0.00 0.00 0.00 62 1011.8
20260507090031 59 17 0.0 0.0 0.00 0.00 0.00 62 1011.8
20260507084530 60 20 0.0 0.0 0.00 0.00 0.00 61 1011.9
20260507083020 60 20 0.0 0.0 0.00 0.00 0.00 61 1011.7
20260507081515 61 20 0.0 0.0 0.00 0.00 0.00 60 1011.7
20260507080016 61 20 0.0 0.0 0.00 0.00 0.00 58 1011.7
20260507074513 62 20 0.0 0.0 0.00 0.00 0.00 57 1011.5
20260507073010 62 20 0.0 0.0 0.00 0.00 0.00 56 1011.6
20260507071509 63 20 0.0 0.0 0.00 0.00 0.00 55 1011.5
20260507070010 63 20 0.0 0.0 0.00 0.00 0.00 54 1011.5
20260507064507 64 20 0.0 0.0 0.00 0.00 0.00 53 1011.6
20260507063045 64 20 0.0 0.0 0.00 0.00 0.00 52 1011.5
20260507061542 65 20 0.0 0.0 0.00 0.00 0.00 51 1011.4
20260507060031 66 20 0.0 0.0 0.00 0.00 0.00 50 1011.4
20260507054526 66 20 0.0 0.0 0.00 0.00 0.00 48 1011.4
20260507053024 67 20 0.0 0.0 0.00 0.00 0.00 48 1011.4
20260507051521 67 20 0.0 0.0 0.00 0.00 0.00 47 1011.4
20260507050030 68 20 0.0 0.0 0.00 0.00 0.00 47 1011.3
20260507044531 69 20 0.0 0.0 0.00 0.00 0.00 45 1011.1
20260507043014 69 20 0.0 0.0 0.00 0.00 0.00 43 1010.8
20260507041513 70 20 0.0 0.0 0.00 0.00 0.00 41 1010.7
20260507040053 70 20 0.0 0.0 0.00 0.00 0.00 40 1010.6
20260507034551 71 20 0.0 0.0 0.00 0.00 0.00 40 1010.5
20260507033036 72 20 0.0 0.0 0.00 0.00 0.00 37 1010.4
20260507031533 72 20 0.0 0.0 0.00 0.00 0.00 37 1010.3
20260507030033 73 20 0.0 0.0 0.00 0.00 0.00 35 1010.2
20260507024529 74 20 0.0 0.0 0.00 0.00 0.00 34 1010.2
20260507023026 75 20 0.0 0.0 0.00 0.00 0.00 33 1010.3
20260507021525 75 20 0.0 0.0 0.00 0.00 0.00 32 1010.4
20260507020024 76 20 0.0 0.0 0.00 0.00 0.00 32 1010.4
20260507014526 76 20 0.0 0.0 0.00 0.00 0.00 31 1010.6
20260507013002 77 20 0.0 0.0 0.00 0.00 0.00 32 1010.7
20260507011502 77 20 0.0 0.0 0.00 0.00 0.00 29 1010.8
20260507010050 78 20 0.0 0.0 0.00 0.00 0.00 29 1010.9
20260507004543 78 20 0.0 0.0 0.00 0.00 0.00 28 1011.2
20260507003022 79 19 0.0 0.0 0.00 0.00 0.00 28 1011.3
20260507001521 79 34 0.0 0.0 0.00 0.00 0.00 29 1011.3
20260507000003 78 34 0.0 0.0 0.00 0.00 0.00 28 1011.4
20260506234501 79 30 0.0 0.0 0.00 0.00 0.00 27 1011.5
20260506233059 79 31 0.0 0.0 0.00 0.00 0.00 27 1011.9
20260506231539 80 31 0.0 0.0 0.00 0.00 0.00 28 1012.1
20260506230037 79 30 0.0 0.0 0.00 0.00 0.00 27 1012.4
20260506224515 78 30 0.0 0.0 0.00 0.00 0.00 26 1012.9
20260506223013 78 30 0.0 0.0 0.00 0.00 0.00 28 1013.2
20260506221555 78 30 0.0 0.0 0.00 0.00 0.00 27 1013.5
20260506220052 78 40 0.0 0.0 0.00 0.00 0.00 27 1013.8
20260506214531 77 40 0.0 0.0 0.00 0.00 0.00 27 1014.2
20260506213027 76 40 0.0 0.0 0.00 0.00 0.00 28 1014.6
20260506211509 75 39 2.0 0.0 0.00 0.00 0.00 26 1014.7
20260506210005 74 224 2.0 0.0 0.00 0.00 0.00 28 1014.9
20260506204551 74 236 0.0 0.0 0.00 0.00 0.00 27 1015.1
20260506203053 73 236 0.0 0.0 0.00 0.00 0.00 27 1015.2
20260506201607 73 229 0.0 0.0 0.00 0.00 0.00 27 1015.4
20260506200050 72 225 0.0 0.0 0.00 0.00 0.00 28 1015.6
20260506194552 71 205 0.0 0.0 0.00 0.00 0.00 27 1015.7
20260506193053 72 227 0.0 0.0 0.00 0.00 0.00 27 1016.0
20260506191548 71 92 2.0 0.0 0.00 0.00 0.00 27 1016.2
20260506190047 70 188 2.0 0.0 0.00 0.00 0.00 29 1016.5
20260506184530 69 186 3.0 0.0 0.00 0.00 0.00 30 1016.7
20260506183029 68 183 4.0 0.0 0.00 0.00 0.00 28 1017.0
20260506181512 67 146 4.0 0.0 0.00 0.00 0.00 32 1017.0
20260506180012 66 188 6.0 0.0 0.00 0.00 0.00 30 1017.2
20260506174553 65 155 6.0 0.0 0.00 0.00 0.00 30 1017.3
20260506173112 64 123 5.0 0.0 0.00 0.00 0.00 31 1017.3
20260506171544 63 178 5.0 0.0 0.00 0.00 0.00 34 1017.4
20260506170034 63 124 6.0 0.0 0.00 0.00 0.00 31 1017.4
20260506164524 61 142 5.0 0.0 0.00 0.00 0.00 32 1017.4